Zurück zum Katalog

FENGYUN 1C DEB

AktivPO
NORAD 33603·DEBRIS·🇨🇳 China

Gestartet May 10, 1999 von Taiyuan Satellite Launch Center

Loading…

Nächste Überflüge (nächste 24 Stunden)

TLE

AktuellSource: Space-Track

Epoche: Sep 14, 2026, 03:10 UTC

1 33603U 99025DCL 26257.13235540  .00001302  00000-0  12011-3 0  9999
2 33603  98.8365 225.3014 0214276 279.8288  77.8790 14.81214375 29329

Verfolge FENGYUN 1C DEB in Echtzeit mit AllMySat

Download on the App Store